Location: Herm
(49.4830°N, 2.4500°W)
Time: 06:20:45
(UTC+01:00)

N. Korean satellite - Visible Passes

Search period start: 16 October 2019 00:00
Search period end: 26 October 2019 00:00
Orbit: 455 x 508 km, 97.2° (Epoch: 15 October)

Date Brightness Start Highest point End Pass type
(mag) Time Alt. Az. Time Alt. Az. Time Alt. Az.
16 Oct 10.4 05:58:00 10° ENE 05:59:12 11° E 06:00:24 10° ESE visible
17 Oct 10.1 19:18:46 10° SW 19:20:43 14° W 19:22:40 10° NW visible
18 Oct 8.7 06:39:04 10° NNE 06:42:20 32° E 06:45:38 10° SSE visible
18 Oct 9.1 18:52:16 10° SSW 18:55:13 27° W 18:58:12 10° NW visible
19 Oct 9.9 06:14:22 10° NE 06:16:53 18° E 06:19:24 10° SE visible
21 Oct 7.6 06:56:21 10° NNE 06:59:53 52° E 07:03:28 10° S visible
21 Oct 9.9 19:10:27 10° SW 19:12:49 17° W 19:15:13 10° NW visible
22 Oct 9.1 06:31:21 10° NE 06:34:29 27° E 06:37:39 10° SSE visible
22 Oct 8.6 18:44:13 10° SSW 18:47:20 32° W 18:50:31 10° NNW visible
23 Oct 10.1 06:06:50 10° NE 06:09:00 15° E 06:11:11 10° SE visible
24 Oct 10.3 19:29:19 10° WSW 19:30:27 11° W 19:31:35 10° WNW visible
25 Oct 8.1 06:48:33 10° NNE 06:52:03 42° E 06:55:34 10° S visible
25 Oct 9.5 19:02:12 10° SW 19:04:54 21° W 19:07:38 10° NW visible
